Lid_Strength_Index
3 3 3 3 3 3 3 3 2 2 2 2 2 3 3 4 4 5 11 7 1 -1 -1 1 2 2 2 4 4 4 11 13 11 11 10 7 8 5 4 7 6 5 5 4 2
3 3 3 3 3 3 3 3 3 3 3 2 2 3 4 3 6 8 3 -1 -1 -1 2 3 4 4 6 6 6 8 11 10 7 7 9 7 7 7 7 7 7 6 4 3 3
4 4 4 3 3 3 3 3 3 3 3 3 3 2 3 3 10 10 -1 -2 -1 -1 1 2 3 4 7 6 7 8 10 8 7 6 6 7 7 6 8 9 7 7 6 4 4
4 4 4 4 4 3 3 3 3 3 3 3 3 2 2 6 11 3 -3 -2 -1 -0 1 3 4 6 8 9 7 10 7 7 6 6 7 8 6 8 7 7 5 5 4 4 4
4 4 4 4 4 4 4 4 4 4 3 3 3 2 5 13 11 4 -2 -1 0 1 3 4 6 6 9 8 7 9 8 6 6 6 6 6 8 8 7 5 4 4 4 5 4
4 4 4 4 4 4 4 4 4 4 3 3 2 2 8 14 9 0 0 1 1 2 3 3 5 5 7 7 8 7 7 7 6 6 6 8 8 7 7 5 5 5 5 5 4
4 4 4 4 4 4 4 4 4 4 4 3 2 2 10 11 4 0 1 3 3 3 4 3 3 5 5 8 6 7 9 7 7 6 7 6 9 9 6 5 6 6 5 5 4
4 4 5 5 5 5 5 5 5 4 3 3 2 5 12 8 5 2 2 3 1 4 3 2 2 4 6 5 7 9 9 12 8 7 6 7 12 7 6 6 7 6 6 5 4
4 5 5 5 5 5 5 6 5 3 2 2 7 9 11 4 7 6 3 4 3 3 3 2 3 6 6 9 11 10 14 12 10 7 7 8 11 7 6 7 7 7 6 5 5
4 4 5 5 5 5 6 6 3 3 2 1 3 10 9 8 8 7 5 2 4 4 5 5 7 9 10 11 16 14 13 12 12 9 8 10 10 8 7 7 7 7 6 6 5
4 4 4 5 5 6 8 9 10 12 8 11 11 10 7 6 7 8 4 3 4 6 10 7 11 13 11 10 10 11 12 12 10 8 9 10 10 9 8 7 8 7 7 6 5
4 4 4 4 5 6 8 14 9 9 12 8 8 8 8 7 8 8 3 6 7 10 8 10 12 9 8 8 10 11 12 12 10 8 10 11 11 9 8 8 7 7 7 6 5
4 4 4 5 5 8 11 11 9 9 13 10 8 8 8 7 8 9 5 6 8 10 9 12 10 7 9 10 11 12 13 12 12 10 9 11 13 11 9 8 7 6 6 5 6
4 4 5 6 9 10 11 8 8 9 14 11 10 7 8 7 9 6 5 5 8 10 9 10 8 8 10 10 10 13 9 10 11 13 16 11 18 13 11 10 8 7 6 6 5
4 5 5 6 11 11 9 8 8 9 18 10 9 6 9 8 8 8 8 8 9 9 9 11 9 10 11 10 9 11 9 10 11 13 14 15 17 14 12 12 10 8 7 6 5
5 5 6 9 9 9 8 9 9 13 16 11 8 9 10 10 10 10 9 7 7 9 9 9 7 8 8 8 8 8 10 11 12 14 18 15 16 15 13 12 10 8 7 6 5
6 6 7 7 11 9 9 10 13 16 10 11 11 11 11 11 10 11 10 9 11 12 12 10 10 8 7 10 8 10 13 18 19 19 20 16 16 14 10 8 8 8 7 6 5
7 7 8 7 9 8 10 12 16 12 12 11 12 12 12 11 11 11 12 12 11 10 12 14 15 9 8 9 11 12 13 17 21 20 17 15 18 14 9 7 7 7 6 6 5
7 11 11 9 7 10 11 15 14 13 10 11 12 13 14 12 11 12 12 12 11 9 12 14 14 9 8 8 8 12 14 11 15 17 18 16 14 10 8 9 8 7 7 6 6
11 11 10 8 8 11 12 14 14 11 10 11 14 13 14 13 13 13 13 11 11 9 12 12 14 11 9 7 8 10 9 15 15 19 21 17 17 16 11 10 8 8 7 6 6
11 11 9 9 10 11 15 14 12 10 10 12 14 14 14 13 13 13 12 10 9 10 11 12 13 12 11 11 11 11 13 13 13 15 19 19 17 11 10 9 9 8 7 6 6
13 11 8 9 12 15 14 12 10 11 10 11 12 12 13 12 14 13 11 11 9 9 11 10 12 14 11 10 10 9 11 12 15 17 16 15 15 8 8 8 7 7 7 6 5
13 12 8 10 14 15 14 12 11 11 11 11 12 12 11 13 13 12 11 8 8 10 11 10 13 15 14 12 11 12 10 12 12 13 16 17 14 8 9 8 7 7 7 6 6
12 12 11 11 13 13 13 13 12 9 10 10 11 12 13 13 13 12 10 8 8 10 3 8 14 13 13 13 12 13 11 10 11 15 15 14 12 9 9 9 8 7 6 6 6
12 13 12 13 13 13 12 13 12 12 10 11 12 12 13 15 13 12 11 10 9 7 12 12 14 13 12 11 11 11 11 10 12 10 13 11 12 9 8 8 7 7 6 6 6
12 13 12 14 13 14 14 14 12 11 11 12 11 11 12 13 13 13 12 13 13 11 12 13 15 15 14 12 11 12 12 11 11 11 10 11 11 7 7 7 7 7 7 7 6
11 11 12 14 14 14 14 12 11 11 10 10 9 11 12 12 11 12 11 11 11 12 13 14 15 16 16 14 13 15 12 12 12 11 11 12 10 8 8 8 7 7 7 6 6